Weather History for Triuchirapalli, India

Change the Weather History Date:

Friday, January 18, 2013

  Actual Average Record
Temperature  
Mean Temperature 80 °F -  
Max Temperature 91 °F 85 °F 91 °F (2013)
Min Temperature 69 °F 72 °F 64 °F (2012)
Cooling Degree Days 15    
Growing Degree Days 30 (Base 50)    
Moisture  
Dew Point 65 °F    
Average Humidity 64    
Maximum Humidity 94    
Minimum Humidity 26    
Precipitation  
Precipitation 0.00 in - - ()
Sea Level Pressure  
Sea Level Pressure 29.96 in    
Wind  
Wind Speed 6 mph ()    
Max Wind Speed 14 mph    
Max Gust Speed -    
Visibility 2.4 miles    
Events      
Averages and records for this station are not official NWS values.
T = Trace of Precipitation, MM = Missing Value Source: Averaged Metar Reports

Daily Weather History Graph

Daily Weather History Graph

Search for Another Location

Airport:

Trip Planner

Search our weather history database for the weather conditions in past years. The results will help you decide how hot, cold, wet, or windy it might be!

Date:

Astronomy

Jan. 18, 2013 Rise Set
Actual Time 6:38 AM IST 6:13 PM IST
Civil Twilight 6:15 AM IST 6:35 PM IST
Nautical Twilight 5:49 AM IST 7:01 PM IST
Astronomical Twilight 5:24 AM IST 7:27 PM IST
Moon 11:25 AM IST (1/18) 12:05 AM IST (1/19)
Length of Visible Light 12h 19m
Length of Day
11h 34m
Waxing Crescent, 43% of the Moon is Illuminated
Jan 18
Waxing Crescent
Jan 19
First Quarter
Jan 27
Full
Feb 3
Last Quarter
Feb 10
New

Hourly Weather History & Observations

Time (IST) Temp. Heat Index Dew Point Humidity Pressure Visibility Wind Dir Wind Speed Gust Speed Precip Events Conditions
12:10 AM 71.6 °F - 68.0 °F 88% 29.95 in 2.5 mi NNE 5.8 mph - N/A   Haze
12:40 AM 71.6 °F - 68.0 °F 88% 29.95 in 2.5 mi NNE 5.8 mph - N/A   Haze
1:10 AM 71.6 °F - 68.0 °F 88% 29.95 in 2.5 mi North 5.8 mph - N/A   Haze
1:40 AM 71.6 °F - 68.0 °F 88% 29.95 in 2.5 mi NNE 4.6 mph - N/A   Haze
2:10 AM 71.6 °F - 68.0 °F 88% 29.95 in 2.5 mi North 5.8 mph - N/A   Haze
2:30 AM 71 °F - 67 °F 85% 29.93 in 1 mi NNE 6.9 mph - -   Haze
3:10 AM 69.8 °F - 68.0 °F 94% 29.92 in 1.9 mi NNE 8.1 mph - N/A   Haze
3:40 AM 69.8 °F - 68.0 °F 94% 29.92 in 1.6 mi North 8.1 mph - N/A   Haze
4:10 AM 69.8 °F - 68.0 °F 94% 29.92 in 1.6 mi North 8.1 mph - N/A   Haze
4:40 AM 69.8 °F - 68.0 °F 94% 29.92 in 1.6 mi NNE 6.9 mph - N/A   Haze
5:10 AM 69.8 °F - 66.2 °F 88% 29.95 in 1.6 mi NE 5.8 mph - N/A   Haze
5:30 AM 72 °F - 64 °F 71% 29.95 in 1 mi NE 4.6 mph - -   Haze
5:40 AM 71.6 °F - 66.2 °F 83% 29.95 in 1.2 mi NNE 5.8 mph - N/A   Scattered Clouds
6:10 AM 73.4 °F - 64.4 °F 73% 29.95 in 1.2 mi NNE 8.1 mph - N/A   Scattered Clouds
6:40 AM 73.4 °F - 66.2 °F 78% 29.98 in 1.2 mi NNE 8.1 mph - N/A   Scattered Clouds
7:10 AM 75.2 °F - 66.2 °F 73% 29.98 in 1.2 mi NNE 6.9 mph - N/A   Partly Cloudy
7:40 AM 77.0 °F - 66.2 °F 69% 30.01 in 1.6 mi NNE 6.9 mph - N/A   Haze
8:10 AM 77.0 °F - 66.2 °F 69% 30.01 in 1.6 mi NNE 10.4 mph - N/A   Haze
8:30 AM 77 °F - 64 °F 56% 30.03 in 1 mi NNE 9.2 mph - -   Haze
8:40 AM 77.0 °F - 64.4 °F 65% 30.04 in 1.6 mi NNE 13.8 mph - N/A   Haze
9:10 AM 78.8 °F - 64.4 °F 61% 30.04 in 1.6 mi NNE 13.8 mph - N/A   Haze
10:10 AM 80.6 °F 82.3 °F 64.4 °F 58% 30.04 in 1.9 mi NNE 12.7 mph - N/A   Haze
10:40 AM 82.4 °F 83.9 °F 64.4 °F 54% 30.04 in 2.5 mi NE 9.2 mph - N/A   Haze
11:30 AM 86 °F - 62 °F 34% 30.01 in 2 mi NE 9.2 mph - -   Haze
11:40 AM 86.0 °F 87.3 °F 64.4 °F 48% 30.01 in 3.1 mi NNE 6.9 mph - N/A   Haze
12:10 PM 87.8 °F 89.4 °F 64.4 °F 46% 29.98 in 3.1 mi ENE 4.6 mph - N/A   Haze
12:40 PM 87.8 °F 88.5 °F 62.6 °F 43% 29.98 in 3.7 mi ENE 3.5 mph - N/A   Partly Cloudy
1:10 PM 87.8 °F 88.5 °F 62.6 °F 43% 29.95 in 3.7 mi ENE 4.6 mph - N/A   Partly Cloudy
1:40 PM 89.6 °F 90.1 °F 62.6 °F 40% 29.92 in 3.7 mi East 3.5 mph - N/A   Partly Cloudy
2:10 PM 91.4 °F 92.1 °F 62.6 °F 38% 29.92 in 4.3 mi East 4.6 mph - N/A   Partly Cloudy
2:30 PM 91 °F - 60 °F 26% 29.90 in 2 mi East 4.6 mph - -   Haze
2:40 PM 91.4 °F 92.1 °F 62.6 °F 38% 29.89 in 5.0 mi ENE 3.5 mph - N/A   Partly Cloudy
3:10 PM 91.4 °F 92.1 °F 62.6 °F 38% 29.89 in 5.0 mi East 3.5 mph - N/A   Partly Cloudy
3:40 PM 89.6 °F 90.1 °F 62.6 °F 40% 29.89 in 5.0 mi East 5.8 mph - N/A   Partly Cloudy
4:10 PM 87.8 °F 88.5 °F 62.6 °F 43% 29.89 in 3.7 mi East 6.9 mph - N/A   Scattered Clouds
4:40 PM 87.8 °F 88.5 °F 62.6 °F 43% 29.89 in 3.7 mi East 9.2 mph - N/A   Partly Cloudy
5:10 PM 87.8 °F 88.5 °F 62.6 °F 43% 29.89 in 3.7 mi East 11.5 mph - N/A   Partly Cloudy
5:30 PM 85 °F - 64 °F 40% 29.90 in 2 mi East 11.5 mph - -   Haze
5:40 PM 84.2 °F 85.6 °F 64.4 °F 51% 29.89 in 3.7 mi East 11.5 mph - N/A   Scattered Clouds
6:40 PM 80.6 °F 82.7 °F 66.2 °F 61% 29.92 in 2.5 mi East 10.4 mph - N/A   Haze
7:10 PM 80.6 °F 82.3 °F 64.4 °F 58% 29.95 in 2.5 mi East 9.2 mph - N/A   Haze
7:40 PM 78.8 °F - 66.2 °F 65% 29.95 in 2.5 mi East 10.4 mph - N/A   Haze
8:10 PM 77.0 °F - 66.2 °F 69% 29.95 in 2.5 mi East 10.4 mph - N/A   Haze
8:30 PM 77 °F - 66 °F 61% 29.96 in 1 mi East 11.5 mph - -   Haze
8:40 PM 77.0 °F - 66.2 °F 69% 29.98 in 2.5 mi East 9.2 mph - N/A   Haze
9:10 PM 77.0 °F - 66.2 °F 69% 29.98 in 2.5 mi East 6.9 mph - N/A   Haze
9:40 PM 77.0 °F - 66.2 °F 69% 29.98 in 2.5 mi East 5.8 mph - N/A   Haze
10:10 PM 75.2 °F - 66.2 °F 73% 29.98 in 2.5 mi East 4.6 mph - N/A   Haze
10:40 PM 75.2 °F - 66.2 °F 73% 29.98 in 2.5 mi ENE 3.5 mph - N/A   Haze
11:10 PM 75.2 °F - 66.2 °F 73% 29.98 in 2.5 mi ENE 3.5 mph - N/A   Haze
11:30 PM 74 °F - 66 °F 71% 29.98 in 1 mi NE 3.5 mph - -   Haze
11:40 PM 73.4 °F - 66.2 °F 78% 29.98 in 2.5 mi NE 3.5 mph - N/A   Haze